星链-32151 (STARLINK-32151)

导读 | 豆包AI

STARLINK-32151是美国太空探索技术公司SpaceX星链星座的成员卫星,星链项目旨在构建覆盖全球的卫星互联网星座,为全球用户提供高速互联网接入服务。该卫星于2024年7月28日由美国发射升空,目前已进入预定轨道运行,将为星链网络补充通信容量,进一步完善全球卫星互联网的覆盖与服务能力。

Basic Information
目录编号:
60299
目录名称:
STARLINK-32151
国际标识:
2024-132X
轨道中心:
EARTH
卫星名称:
星链-32151 (STARLINK-32151)
卫星全名:
星链-32151 (STARLINK-32151)
卫星状态:
在轨 (已飞行642 天)
发射日期:
2024-07-28 UTC
国别 :
美国 (US)
星等 :
--
Orbit Information
数据来源 国际轨道数据
星历时间: 2026-04-30T15:58:39+0800
20小时前
查看轨道信息
半长轴: 6853.382km
偏心率: 0.000138
轨道倾角: 53.161°
近地点辐角 81.638°
升交点赤经 144.108°
平近点角 278.478°
近地点: 474.299km
远地点: 476.191km
周期: 94.106分钟
每日圈数: 15.301902
Detailed Information
卫星平台:
Starlink v2.0 mini
运营商:
太空探索技术公司
运营商所在国:
美国
制造商(研发单位):
太空探索技术公司
制造商所在国:
美国
使用方式:
暂无
Satellite Introduction
星链(Starlink)计划是由太空探索技术公司(SpaceX)提出的一个巨型低轨卫星互联网星座项目,计划在2019年至2024年间在太空搭建由约1.2万颗卫星组成的“星链”网络,其中1584颗将部署在地球上空550千米处的近地轨道,并从2020年开始工作。该卫星仍在工作。
2D Orbit Map
3D Orbit Map
Orbit Altitude Analysis Chart
Orbit Inclination Analysis Chart
Orbit Comprehensive Analysis Chart
View Comprehensive Chart